Total_Precipitation_Accumulation
0.12 0.28 0.57 0.73 0.87 0.42 0.15 0.09 0.05 0.07 0.06 0.03 0.02 0.03 0.12 0.24 0.39 0.58 0.20 0.07 0.03 0.03 0.06 0.11 0.20 0.22 0.21 0.20 0.18 0.23 0.23 0.15 0.15 0.17 0.15 0.12 0.11 0.11 0.11 0.11 0.08 0.06 0.06 0.08 0.17 0.24 0.24 0.26 0.36
0.18 0.41 0.59 0.91 0.75 0.27 0.20 0.12 0.10 0.09 0.04 0.02 0.01 0.03 0.06 0.06 0.05 0.12 0.16 0.08 0.03 0.04 0.06 0.13 0.24 0.29 0.28 0.24 0.24 0.37 0.34 0.25 0.21 0.20 0.18 0.12 0.10 0.13 0.19 0.18 0.08 0.05 0.06 0.07 0.14 0.22 0.22 0.26 0.36
0.23 0.43 0.63 0.82 0.40 0.25 0.26 0.20 0.15 0.08 0.03 0.03 0.04 0.04 0.06 0.09 0.12 0.22 0.25 0.12 0.07 0.07 0.13 0.30 0.38 0.34 0.32 0.33 0.41 0.54 0.48 0.41 0.32 0.22 0.17 0.16 0.14 0.14 0.20 0.15 0.09 0.05 0.06 0.08 0.14 0.20 0.20 0.21 0.25
0.23 0.42 0.66 0.65 0.34 0.25 0.26 0.24 0.17 0.10 0.05 0.02 0.04 0.06 0.05 0.08 0.17 0.29 0.29 0.18 0.14 0.16 0.21 0.33 0.42 0.38 0.37 0.44 0.54 0.57 0.58 0.61 0.44 0.27 0.21 0.21 0.19 0.18 0.19 0.17 0.11 0.07 0.07 0.08 0.11 0.15 0.20 0.21 0.23
0.29 0.52 0.76 0.74 0.42 0.34 0.34 0.26 0.19 0.14 0.09 0.04 0.05 0.11 0.10 0.12 0.22 0.34 0.37 0.27 0.22 0.23 0.25 0.31 0.44 0.45 0.47 0.55 0.61 0.58 0.62 0.66 0.51 0.30 0.28 0.27 0.19 0.18 0.19 0.20 0.12 0.08 0.06 0.06 0.10 0.13 0.16 0.19 0.23
0.36 0.60 0.87 0.90 0.57 0.42 0.44 0.28 0.17 0.15 0.10 0.10 0.10 0.15 0.15 0.18 0.32 0.48 0.51 0.56 0.50 0.41 0.35 0.36 0.45 0.48 0.51 0.58 0.67 0.60 0.61 0.62 0.49 0.38 0.34 0.28 0.24 0.22 0.23 0.18 0.12 0.08 0.06 0.06 0.08 0.11 0.14 0.16 0.19
0.32 0.54 0.75 0.59 0.52 0.57 0.51 0.27 0.20 0.20 0.21 0.20 0.15 0.20 0.22 0.22 0.30 0.46 0.55 0.65 0.78 0.81 0.70 0.53 0.45 0.45 0.51 0.61 0.71 0.73 0.69 0.65 0.51 0.45 0.38 0.34 0.32 0.26 0.20 0.16 0.13 0.10 0.09 0.08 0.08 0.09 0.10 0.11 0.14
0.12 0.26 0.49 0.54 0.53 0.58 0.42 0.23 0.15 0.15 0.15 0.16 0.20 0.25 0.27 0.26 0.30 0.40 0.59 0.79 0.85 0.91 0.87 0.76 0.67 0.64 0.64 0.61 0.74 0.90 0.94 0.86 0.69 0.57 0.51 0.47 0.37 0.29 0.24 0.15 0.13 0.11 0.10 0.10 0.09 0.08 0.07 0.08 0.10
0.10 0.24 0.55 0.76 0.67 0.48 0.30 0.19 0.14 0.12 0.11 0.12 0.14 0.17 0.19 0.23 0.33 0.44 0.55 0.63 0.73 0.76 0.77 0.79 0.83 0.86 0.92 0.92 0.90 1.10 1.16 1.05 0.82 0.68 0.67 0.65 0.50 0.50 0.46 0.29 0.29 0.21 0.17 0.15 0.13 0.10 0.07 0.06 0.06
0.13 0.28 0.51 0.60 0.45 0.30 0.24 0.20 0.16 0.17 0.16 0.12 0.15 0.18 0.18 0.23 0.33 0.41 0.48 0.51 0.55 0.62 0.63 0.64 0.69 0.77 0.89 0.97 1.30 1.50 1.30 1.18 0.90 0.87 0.74 0.76 0.80 0.82 0.59 0.46 0.48 0.41 0.32 0.24 0.19 0.17 0.11 0.06 0.03
0.11 0.18 0.23 0.32 0.31 0.20 0.17 0.17 0.17 0.16 0.18 0.14 0.15 0.18 0.20 0.25 0.32 0.38 0.41 0.43 0.47 0.49 0.48 0.48 0.47 0.49 0.58 0.78 1.12 1.40 1.52 1.48 1.39 1.15 0.90 0.90 0.77 0.65 0.55 0.47 0.50 0.49 0.43 0.36 0.36 0.27 0.16 0.11 0.09
0.12 0.12 0.12 0.18 0.19 0.17 0.15 0.12 0.12 0.12 0.13 0.12 0.15 0.17 0.21 0.25 0.28 0.31 0.38 0.41 0.45 0.47 0.48 0.45 0.44 0.41 0.43 0.52 0.69 0.89 1.03 1.11 1.13 0.98 0.87 0.94 0.81 0.69 0.67 0.62 0.60 0.57 0.53 0.51 0.50 0.41 0.28 0.18 0.11
0.15 0.12 0.10 0.12 0.14 0.13 0.11 0.09 0.09 0.10 0.13 0.13 0.17 0.25 0.31 0.35 0.33 0.35 0.39 0.42 0.46 0.52 0.59 0.56 0.47 0.44 0.43 0.47 0.54 0.62 0.77 0.86 0.88 0.91 0.86 0.88 0.87 0.83 0.77 0.67 0.65 0.58 0.58 0.57 0.56 0.46 0.36 0.28 0.19
0.11 0.12 0.11 0.11 0.12 0.10 0.10 0.10 0.09 0.11 0.14 0.17 0.22 0.30 0.38 0.46 0.46 0.47 0.48 0.49 0.49 0.53 0.60 0.65 0.57 0.52 0.48 0.46 0.49 0.54 0.64 0.72 0.76 0.75 0.74 0.84 0.91 0.89 0.84 0.77 0.77 0.72 0.69 0.73 0.65 0.51 0.47 0.36 0.24
0.05 0.08 0.11 0.11 0.14 0.14 0.14 0.14 0.12 0.13 0.16 0.21 0.26 0.30 0.37 0.46 0.51 0.54 0.53 0.51 0.51 0.53 0.56 0.59 0.60 0.60 0.59 0.57 0.56 0.56 0.63 0.73 0.74 0.72 0.67 0.68 0.76 0.81 0.83 0.81 0.78 0.81 0.87 0.87 0.81 0.63 0.53 0.39 0.27
0.08 0.13 0.22 0.18 0.20 0.23 0.24 0.21 0.14 0.16 0.18 0.21 0.24 0.28 0.33 0.37 0.42 0.48 0.50 0.47 0.47 0.46 0.47 0.52 0.54 0.59 0.65 0.68 0.69 0.71 0.71 0.78 0.75 0.74 0.67 0.63 0.67 0.74 0.86 0.86 0.81 0.81 0.90 0.94 0.94 0.79 0.66 0.48 0.37
0.10 0.16 0.21 0.20 0.17 0.20 0.22 0.21 0.18 0.19 0.19 0.21 0.23 0.22 0.23 0.26 0.31 0.36 0.39 0.41 0.42 0.41 0.41 0.44 0.48 0.51 0.62 0.70 0.73 0.82 0.84 0.85 0.83 0.82 0.73 0.70 0.76 0.81 0.96 1.04 1.03 1.02 0.99 0.93 0.88 0.86 0.75 0.59 0.48
0.16 0.12 0.13 0.13 0.10 0.10 0.12 0.14 0.15 0.16 0.15 0.15 0.16 0.17 0.17 0.18 0.22 0.27 0.28 0.29 0.30 0.32 0.34 0.38 0.43 0.45 0.53 0.68 0.80 0.96 1.07 1.04 1.06 1.00 0.88 0.90 1.03 1.16 1.27 1.25 1.31 1.35 1.19 1.09 0.99 0.95 0.86 0.70 0.60
0.08 0.06 0.06 0.08 0.09 0.09 0.10 0.12 0.14 0.14 0.13 0.12 0.12 0.12 0.13 0.12 0.13 0.15 0.19 0.22 0.22 0.22 0.25 0.31 0.34 0.42 0.50 0.58 0.73 0.95 1.22 1.33 1.42 1.37 1.20 1.14 1.26 1.49 1.68 1.61 1.62 1.61 1.44 1.36 1.41 1.54 1.42 1.09 0.79
0.07 0.07 0.06 0.05 0.05 0.06 0.08 0.09 0.09 0.11 0.12 0.12 0.11 0.10 0.10 0.09 0.07 0.07 0.10 0.13 0.15 0.15 0.17 0.22 0.30 0.39 0.48 0.57 0.75 0.91 1.06 1.07 1.23 1.39 1.36 1.27 1.25 1.39 1.52 1.75 1.78 1.68 1.66 1.75 1.78 2.02 2.07 1.58 1.12
0.07 0.09 0.11 0.11 0.07 0.05 0.06 0.09 0.08 0.09 0.11 0.11 0.12 0.11 0.10 0.08 0.06 0.06 0.06 0.08 0.09 0.10 0.12 0.15 0.22 0.32 0.45 0.61 0.85 1.07 1.26 1.34 1.40 1.32 1.41 1.41 1.33 1.35 1.43 1.58 1.72 1.70 1.73 1.77 1.87 2.16 2.50 2.20 1.66
0.06 0.05 0.06 0.09 0.14 0.14 0.15 0.19 0.14 0.15 0.18 0.18 0.18 0.15 0.14 0.12 0.09 0.06 0.06 0.07 0.07 0.08 0.09 0.12 0.20 0.35 0.56 0.78 1.04 1.30 1.50 1.53 1.43 1.47 1.50 1.37 1.29 1.25 1.31 1.44 1.57 1.66 1.66 1.75 1.81 1.89 2.30 2.54 2.22
0.02 0.02 0.03 0.07 0.12 0.11 0.10 0.17 0.16 0.22 0.30 0.32 0.30 0.26 0.20 0.16 0.13 0.12 0.11 0.12 0.13 0.14 0.16 0.23 0.43 0.68 0.93 1.14 1.41 1.70 1.70 1.59 1.50 1.49 1.46 1.40 1.39 1.37 1.36 1.49 1.54 1.54 1.59 1.67 1.93 2.14 2.37 2.49 2.40
0.01 0.02 0.05 0.08 0.11 0.07 0.06 0.13 0.24 0.28 0.33 0.37 0.36 0.30 0.23 0.19 0.22 0.27 0.31 0.37 0.41 0.44 0.58 0.79 1.05 1.24 1.33 1.46 1.61 1.73 1.71 1.72 1.66 1.48 1.38 1.37 1.41 1.47 1.52 1.57 1.55 1.50 1.53 1.61 1.79 2.02 2.23 2.47 2.59
0.01 0.04 0.10 0.12 0.14 0.12 0.12 0.27 0.38 0.34 0.29 0.29 0.30 0.25 0.20 0.24 0.33 0.45 0.61 0.74 0.84 0.96 1.08 1.22 1.42 1.56 1.50 1.47 1.52 1.56 1.57 1.57 1.56 1.50 1.40 1.34 1.35 1.36 1.40 1.50 1.61 1.67 1.69 1.76 1.90 2.00 1.92 2.11 2.42
0.02 0.07 0.18 0.23 0.21 0.23 0.27 0.47 0.52 0.41 0.31 0.22 0.17 0.16 0.24 0.38 0.52 0.63 0.72 0.83 1.00 1.14 1.19 1.19 1.30 1.40 1.36 1.33 1.31 1.28 1.34 1.37 1.34 1.26 1.25 1.28 1.34 1.32 1.26 1.30 1.40 1.53 1.68 1.70 1.72 1.71 1.65 1.77 1.96
0.04 0.06 0.14 0.27 0.23 0.23 0.35 0.61 0.57 0.37 0.31 0.25 0.22 0.25 0.38 0.58 0.79 0.94 1.04 1.17 1.21 1.25 1.30 1.22 1.21 1.25 1.25 1.17 1.09 1.09 1.15 1.20 1.23 1.17 1.19 1.17 1.16 1.08 1.01 1.01 1.04 1.11 1.18 1.23 1.37 1.45 1.53 1.54 1.65
0.09 0.16 0.24 0.42 0.46 0.45 0.54 0.65 0.58 0.46 0.43 0.45 0.52 0.61 0.67 0.78 1.03 1.32 1.57 1.74 1.57 1.30 1.18 1.13 1.06 1.06 1.14 1.11 1.04 1.01 1.10 1.11 1.10 1.13 1.10 1.10 1.09 1.00 0.93 0.88 0.83 0.79 0.76 0.79 0.97 1.15 1.26 1.35 1.47
0.15 0.26 0.34 0.46 0.56 0.70 0.88 0.97 0.83 0.86 0.88 0.95 1.06 1.10 1.10 1.21 1.19 1.34 1.53 1.70 1.60 1.28 1.05 1.05 1.06 1.01 0.99 0.99 1.01 1.00 0.99 0.90 0.89 0.94 0.95 0.94 0.95 0.98 0.96 0.87 0.81 0.86 0.85 0.80 0.85 0.90 0.95 1.03 1.15
0.27 0.38 0.52 0.69 0.63 0.69 0.89 1.06 0.95 0.94 0.96 1.05 1.23 1.30 1.29 1.20 1.10 1.09 1.13 1.20 1.21 1.06 0.87 0.83 0.96 1.01 0.95 0.92 0.95 0.94 0.85 0.81 0.77 0.76 0.73 0.66 0.64 0.67 0.75 0.82 0.77 0.75 0.77 0.77 0.81 0.84 0.88 0.89 0.96